Temp
3 4 4 3 3 3 3 4 3 5 4 2 3 3 1 0 -0 -1 -2 -3 -4 -5 -5 -6 -4 -5 -1 -0 -2 -1 -0 2 4 5 6 6 6 7 8 8 8 8 8 9
2 4 3 3 3 3 3 4 3 3 4 1 2 2 -0 -1 -1 -2 -3 -4 -5 -6 -6 -7 -7 -6 -5 -3 -4 -4 -2 -0 1 3 4 5 5 6 6 7 7 7 7 8
3 4 4 3 3 3 2 1 1 2 2 2 2 1 -2 -2 -3 -4 -5 -5 -6 -7 -7 -8 -7 -8 -7 -5 -4 -3 -3 -1 1 3 3 4 4 5 5 6 6 6 6 7
3 3 2 3 3 2 2 1 1 1 1 1 0 -0 -3 -4 -4 -5 -6 -7 -7 -7 -8 -7 -7 -6 -5 -5 -5 -5 -5 -4 -2 0 1 1 3 4 4 4 4 5 5 6
2 2 3 2 2 1 1 1 -0 0 1 -0 -1 -1 -3 -4 -5 -6 -7 -8 -8 -7 -7 -6 -6 -6 -5 -6 -5 -5 -5 -4 -2 -2 -2 -2 -0 1 2 3 3 4 4 6
2 1 2 2 1 0 0 1 -1 -1 -1 -1 -1 -0 -1 -5 -6 -7 -7 -8 -7 -7 -8 -6 -6 -6 -6 -6 -6 -6 -6 -6 -5 -5 -4 -3 -2 -2 -1 -0 1 2 3 4
1 -0 1 1 -0 -0 1 0 -1 -2 -2 -3 -2 -3 -4 -5 -6 -7 -7 -7 -7 -7 -7 -7 -6 -6 -6 -7 -8 -7 -7 -7 -6 -5 -4 -4 -4 -3 -2 -1 -0 1 2 3
-1 -2 1 -1 0 2 -1 -2 -2 -2 -3 -4 -4 -4 -5 -6 -7 -8 -7 -7 -7 -7 -7 -7 -7 -6 -6 -6 -7 -7 -7 -7 -6 -6 -6 -6 -6 -5 -4 -3 -2 -1 -0 1
1 2 -2 -1 -2 -2 -3 -3 -3 -3 -4 -5 -5 -6 -6 -7 -7 -8 -7 -7 -7 -8 -7 -8 -8 -8 -7 -7 -7 -7 -7 -7 -7 -7 -6 -6 -6 -7 -7 -6 -5 -5 -4 -1
-0 -0 -1 -2 -2 -2 -2 -3 -3 -4 -4 -5 -6 -7 -8 -8 -9 -9 -10 -10 -9 -9 -10 -9 -8 -8 -8 -8 -8 -8 -8 -7 -7 -7 -7 -7 -7 -8 -8 -8 -8 -9 -8 -6
-0 -1 -1 -2 -2 -2 -2 -3 -3 -4 -5 -6 -6 -8 -9 -9 -10 -10 -10 -8 -9 -9 -9 -8 -8 -8 -8 -8 -7 -7 -7 -7 -7 -7 -7 -7 -7 -9 -9 -9 -9 -10 -9 -9
1 -1 -0 -2 -2 -2 -3 -3 -4 -5 -5 -6 -7 -8 -8 -9 -10 -11 -10 -9 -9 -9 -9 -9 -9 -8 -8 -8 -8 -8 -8 -8 -9 -9 -9 -9 -9 -7 -9 -9 -9 -9 -9 -9
0 -0 -1 -2 -3 -3 -3 -4 -5 -6 -7 -7 -8 -9 -9 -10 -11 -11 -11 -10 -11 -11 -11 -11 -10 -10 -9 -10 -10 -10 -10 -10 -10 -10 -10 -10 -10 -10 -9 -8 -9 -10 -9 -9
-0 -1 -3 -3 -3 -4 -4 -5 -6 -7 -8 -8 -9 -10 -11 -11 -10 -11 -11 -11 -11 -11 -11 -11 -11 -11 -11 -10 -10 -10 -10 -10 -10 -10 -10 -10 -11 -11 -11 -11 -10 -10 -10 -10
-1 -1 -1 -3 -4 -5 -5 -6 -7 -8 -9 -10 -10 -10 -11 -11 -11 -11 -11 -11 -11 -11 -11 -11 -11 -10 -11 -10 -10 -10 -10 -10 -10 -10 -10 -10 -10 -10 -11 -11 -12 -12 -11 -10
-2 -3 -3 -4 -5 -6 -7 -7 -8 -9 -10 -10 -11 -11 -11 -12 -12 -12 -12 -12 -12 -12 -12 -11 -11 -11 -11 -11 -10 -10 -10 -10 -10 -10 -10 -10 -11 -11 -11 -12 -12 -13 -12 -12
-3 -5 -5 -5 -6 -7 -7 -8 -9 -10 -10 -11 -12 -12 -12 -12 -12 -12 -12 -12 -12 -12 -12 -12 -12 -12 -11 -11 -11 -10 -10 -10 -11 -11 -11 -11 -11 -12 -12 -12 -12 -14 -14 -14
-4 -4 -5 -6 -6 -7 -8 -9 -10 -10 -11 -12 -12 -12 -12 -13 -13 -13 -13 -13 -12 -12 -12 -12 -12 -12 -12 -11 -11 -11 -11 -11 -11 -12 -12 -12 -12 -12 -12 -13 -13 -14 -14 -14
-5 -5 -6 -7 -7 -8 -9 -10 -11 -12 -12 -12 -12 -13 -13 -13 -13 -14 -13 -13 -12 -12 -13 -13 -13 -12 -12 -12 -12 -12 -11 -12 -12 -12 -12 -12 -12 -13 -13 -13 -13 -13 -13 -13
-6 -6 -7 -7 -8 -9 -10 -11 -11 -12 -12 -12 -13 -13 -13 -13 -14 -13 -13 -14 -14 -14 -14 -14 -13 -13 -13 -13 -13 -12 -12 -12 -12 -12 -13 -13 -13 -13 -13 -13 -13 -13 -13 -13
-7 -7 -8 -9 -9 -10 -11 -11 -12 -12 -13 -13 -13 -13 -14 -14 -14 -14 -13 -13 -14 -14 -14 -14 -14 -14 -14 -14 -13 -13 -13 -13 -13 -13 -13 -13 -13 -13 -13 -13 -13 -13 -13 -13
-7 -8 -9 -10 -11 -11 -12 -12 -12 -13 -13 -14 -14 -14 -14 -14 -14 -14 -15 -15 -15 -15 -15 -15 -14 -14 -14 -14 -14 -14 -14 -14 -14 -14 -14 -14 -14 -14 -14 -14 -14 -14 -14 -14
-8 -9 -10 -11 -11 -12 -12 -13 -13 -13 -13 -14 -14 -14 -14 -15 -15 -15 -15 -15 -15 -15 -15 -15 -15 -15 -15 -15 -15 -15 -15 -15 -14 -14 -14 -14 -14 -14 -14 -14 -14 -14 -14 -14
-9 -10 -10 -11 -12 -12 -13 -13 -13 -14 -14 -14 -15 -15 -15 -15 -15 -15 -15 -15 -15 -15 -16 -16 -16 -15 -15 -15 -15 -15 -15 -15 -15 -15 -14 -14 -14 -14 -14 -14 -14 -14 -14 -14
-10 -11 -11 -12 -12 -13 -13 -14 -14 -14 -15 -15 -15 -15 -15 -16 -16 -16 -16 -16 -16 -16 -16 -16 -16 -16 -16 -16 -16 -16 -16 -16 -16 -16 -15 -15 -15 -15 -15 -15 -15 -15 -14 -14
-11 -11 -12 -12 -13 -13 -14 -14 -14 -14 -15 -15 -15 -16 -16 -16 -16 -16 -16 -16 -16 -16 -16 -16 -16 -16 -16 -17 -17 -17 -17 -17 -16 -16 -16 -16 -16 -15 -15 -15 -15 -15 -15 -15
-11 -12 -12 -12 -13 -13 -14 -14 -14 -15 -15 -15 -16 -16 -16 -16 -16 -16 -16 -17 -17 -17 -17 -17 -17 -17 -17 -17 -17 -17 -17 -17 -17 -17 -17 -16 -16 -16 -16 -16 -16 -16 -16 -16
Height
1511 1510 1511 1511 1513 1514 1514 1509 1506 1494 1498 1501 1499 1496 1495 1493 1490 1488 1484 1480 1473 1469 1463 1456 1447 1441 1436 1428 1431 1429 1424 1422 1415 1414 1413 1413 1412 1412 1411 1410 1409 1409 1408 1409
1511 1507 1508 1508 1510 1511 1508 1505 1506 1502 1496 1502 1499 1497 1496 1494 1492 1489 1486 1481 1476 1469 1463 1459 1450 1445 1439 1438 1438 1431 1424 1420 1418 1414 1411 1409 1410 1408 1408 1407 1406 1405 1404 1403
1505 1503 1502 1505 1507 1508 1508 1511 1511 1502 1503 1502 1498 1497 1497 1496 1493 1490 1487 1482 1476 1471 1465 1457 1451 1447 1439 1434 1428 1423 1422 1422 1415 1409 1408 1408 1408 1405 1402 1401 1400 1400 1399 1396
1505 1501 1505 1506 1508 1508 1508 1508 1509 1508 1506 1504 1502 1498 1497 1495 1492 1489 1485 1480 1474 1468 1463 1457 1452 1445 1438 1432 1425 1422 1423 1418 1410 1406 1408 1407 1404 1402 1400 1397 1395 1394 1392 1390
1509 1507 1502 1508 1508 1509 1509 1508 1511 1509 1506 1504 1501 1496 1495 1494 1491 1488 1484 1478 1473 1467 1461 1455 1448 1442 1436 1432 1427 1426 1421 1415 1410 1409 1408 1404 1401 1399 1395 1393 1391 1389 1388 1386
1510 1511 1504 1502 1508 1509 1510 1502 1510 1509 1507 1505 1502 1495 1495 1494 1490 1487 1482 1477 1471 1466 1460 1455 1448 1442 1436 1435 1430 1426 1419 1415 1411 1406 1402 1399 1397 1395 1392 1390 1387 1384 1382 1380
1512 1516 1506 1507 1507 1507 1503 1509 1509 1507 1506 1504 1502 1502 1498 1494 1489 1484 1480 1475 1471 1465 1459 1453 1447 1442 1438 1433 1426 1424 1420 1416 1410 1403 1400 1397 1395 1392 1388 1385 1382 1380 1376 1374
1518 1520 1505 1507 1506 1504 1508 1507 1507 1506 1505 1503 1501 1499 1496 1493 1489 1484 1477 1473 1469 1464 1460 1456 1449 1441 1436 1432 1427 1423 1419 1414 1407 1404 1399 1396 1393 1389 1385 1381 1378 1374 1370 1367
1503 1498 1503 1504 1505 1506 1506 1507 1506 1506 1504 1502 1500 1497 1494 1489 1485 1480 1474 1472 1468 1464 1459 1456 1450 1444 1439 1433 1428 1425 1419 1414 1410 1405 1400 1395 1390 1384 1382 1379 1373 1370 1366 1360
1502 1501 1501 1502 1503 1504 1504 1505 1505 1504 1502 1500 1498 1496 1493 1489 1485 1480 1476 1472 1467 1463 1460 1455 1449 1441 1435 1433 1429 1423 1418 1413 1408 1402 1397 1393 1390 1385 1380 1375 1372 1369 1362 1357
1500 1498 1500 1500 1501 1502 1503 1503 1503 1502 1500 1497 1494 1492 1491 1488 1485 1480 1475 1470 1466 1462 1456 1451 1445 1440 1437 1434 1428 1423 1418 1413 1408 1401 1397 1393 1389 1385 1380 1377 1373 1367 1362 1355
1491 1493 1494 1498 1499 1499 1500 1501 1500 1499 1498 1495 1492 1489 1486 1484 1481 1477 1473 1469 1464 1460 1456 1451 1447 1443 1439 1435 1430 1425 1420 1415 1411 1406 1400 1394 1389 1384 1384 1378 1373 1369 1364 1357
1490 1492 1494 1496 1497 1498 1499 1498 1497 1496 1495 1493 1490 1487 1484 1480 1477 1475 1472 1469 1466 1462 1459 1455 1450 1445 1441 1438 1434 1430 1424 1418 1413 1406 1396 1391 1387 1383 1378 1376 1374 1368 1362 1356
1490 1491 1494 1495 1496 1497 1497 1496 1495 1494 1493 1490 1488 1484 1481 1478 1474 1471 1467 1464 1462 1459 1456 1452 1449 1446 1442 1438 1432 1426 1421 1416 1406 1399 1394 1392 1388 1384 1379 1373 1366 1362 1359 1354
1490 1491 1492 1493 1495 1495 1495 1495 1493 1492 1490 1488 1485 1482 1479 1476 1473 1470 1467 1463 1460 1456 1452 1448 1445 1442 1438 1433 1428 1422 1416 1410 1404 1399 1395 1391 1386 1382 1377 1373 1369 1363 1357 1354
1489 1491 1492 1492 1493 1494 1494 1493 1491 1489 1487 1485 1483 1480 1478 1475 1472 1470 1466 1462 1458 1453 1449 1446 1442 1438 1433 1428 1423 1418 1413 1408 1404 1400 1397 1393 1389 1384 1380 1376 1371 1365 1359 1353
1489 1491 1491 1492 1492 1492 1491 1490 1488 1487 1485 1483 1481 1478 1475 1473 1471 1468 1464 1461 1457 1452 1448 1444 1441 1436 1432 1428 1422 1418 1414 1410 1407 1404 1399 1395 1391 1387 1382 1378 1373 1368 1362 1356
1488 1489 1490 1491 1490 1490 1489 1488 1487 1486 1484 1482 1480 1477 1474 1471 1468 1464 1461 1457 1454 1450 1446 1442 1439 1435 1432 1427 1423 1419 1415 1411 1408 1404 1401 1397 1393 1389 1385 1380 1376 1370 1364 1360
1488 1489 1490 1489 1489 1488 1487 1486 1485 1484 1483 1481 1479 1476 1473 1470 1467 1464 1459 1456 1451 1448 1445 1442 1439 1435 1431 1427 1423 1419 1415 1412 1409 1405 1402 1399 1395 1391 1387 1383 1379 1375 1370 1366
1488 1489 1489 1488 1488 1487 1486 1485 1483 1482 1481 1480 1478 1476 1473 1469 1466 1463 1459 1456 1452 1450 1446 1443 1439 1435 1431 1427 1423 1420 1416 1413 1410 1407 1404 1400 1397 1394 1391 1388 1384 1381 1377 1374
1488 1488 1487 1487 1486 1485 1484 1483 1481 1480 1479 1478 1476 1474 1472 1469 1466 1462 1458 1455 1452 1449 1446 1443 1439 1435 1431 1428 1424 1421 1418 1414 1411 1409 1406 1403 1401 1398 1396 1393 1390 1388 1385 1383
1487 1487 1486 1486 1485 1484 1483 1481 1480 1479 1478 1477 1476 1474 1471 1469 1466 1463 1459 1456 1452 1449 1446 1443 1439 1436 1432 1429 1425 1422 1419 1416 1413 1411 1408 1406 1404 1402 1400 1398 1396 1394 1392 1391
1485 1485 1485 1485 1485 1484 1483 1481 1480 1478 1477 1476 1475 1473 1471 1467 1464 1461 1458 1456 1453 1449 1447 1444 1440 1437 1433 1430 1426 1423 1421 1418 1415 1413 1410 1409 1407 1405 1404 1402 1401 1400 1398 1397
1485 1485 1485 1485 1484 1484 1482 1481 1479 1478 1476 1475 1474 1472 1470 1467 1465 1463 1460 1457 1454 1450 1447 1444 1441 1438 1434 1431 1428 1425 1422 1419 1417 1414 1412 1410 1409 1408 1406 1405 1404 1403 1403 1402
1484 1484 1484 1484 1483 1482 1481 1480 1479 1478 1477 1476 1474 1472 1470 1467 1465 1462 1460 1457 1454 1451 1448 1445 1441 1438 1435 1432 1430 1427 1424 1421 1418 1416 1414 1412 1411 1409 1409 1408 1407 1406 1405 1405
1482 1483 1483 1483 1482 1481 1480 1480 1479 1478 1477 1475 1474 1471 1469 1467 1465 1462 1460 1457 1455 1452 1448 1445 1442 1439 1437 1434 1431 1429 1426 1424 1421 1418 1416 1414 1413 1412 1411 1410 1409 1408 1408 1408
1481 1482 1482 1482 1481 1480 1480 1480 1479 1478 1477 1475 1473 1471 1469 1467 1465 1463 1460 1458 1455 1452 1449 1446 1443 1441 1438 1435 1433 1430 1428 1426 1424 1421 1419 1417 1416 1414 1413 1413 1412 1412 1411 1411
Wind_Speed
7 12 11 13 10 7 7 9 7 10 16 9 13 15 13 14 16 19 22 25 26 26 27 29 32 32 25 26 23 19 18 15 12 9 8 9 9 11 13 14 13 14 15 17
3 2 2 4 6 3 5 7 8 8 12 11 18 18 13 15 18 19 22 24 24 24 26 24 27 28 26 22 21 21 20 18 15 13 12 11 12 11 12 14 13 13 14 16
2 4 3 3 4 1 4 2 2 7 7 14 15 18 9 14 17 19 21 22 23 22 23 24 26 24 25 24 25 26 22 18 16 15 14 13 14 13 13 15 15 15 15 15
2 5 1 3 3 3 3 4 2 5 9 11 16 21 5 13 19 20 20 21 21 23 24 24 26 27 26 25 26 26 24 23 23 20 17 16 16 15 15 15 16 18 17 16
1 2 2 3 1 3 2 1 2 6 10 13 17 11 3 17 17 17 20 19 20 21 23 26 28 28 27 26 26 26 27 26 24 21 21 21 20 19 19 19 18 17 17 18
1 2 3 3 1 4 3 4 7 4 8 10 15 7 6 20 17 18 21 20 23 22 22 25 28 28 27 25 26 28 29 27 25 24 25 22 22 23 22 21 21 21 20 19
3 3 5 1 7 3 3 2 9 8 6 8 5 8 13 16 16 20 21 22 23 24 24 25 27 28 26 26 27 28 26 26 27 27 26 24 25 24 23 23 23 22 22 20
3 2 3 1 2 2 2 4 7 8 7 9 10 12 12 12 14 17 22 23 23 24 24 24 26 27 28 28 29 28 27 27 27 27 27 27 25 23 22 23 22 23 22 22
5 2 4 1 2 2 2 3 4 6 8 9 9 11 13 16 17 18 22 23 22 23 24 23 24 25 27 27 28 28 27 27 26 25 24 25 26 26 24 22 23 24 24 25
2 2 4 6 4 2 1 3 3 6 9 11 10 10 11 12 13 15 16 20 21 21 21 22 25 26 27 27 27 27 28 28 26 26 26 24 24 23 23 24 23 21 29 29
4 4 2 4 6 2 3 3 4 7 10 12 13 12 11 11 12 14 18 20 20 21 23 24 25 26 26 27 27 28 28 28 27 26 26 25 22 24 22 20 21 23 25 28
3 7 3 3 4 2 4 2 5 8 10 11 13 14 16 14 13 15 18 20 20 20 21 22 23 24 24 25 26 25 25 25 23 23 22 23 23 20 15 17 18 19 19 18
4 8 5 7 5 3 1 4 7 8 10 11 13 14 16 15 15 14 16 17 16 17 18 19 19 20 20 20 21 20 19 19 19 20 22 24 23 23 25 18 15 17 19 19
7 9 6 7 3 2 3 5 6 8 9 11 13 13 15 16 15 15 17 18 16 17 17 17 16 16 17 19 20 19 19 19 21 22 23 22 22 22 22 24 27 26 21 20
6 5 3 5 4 1 3 4 6 8 11 13 15 16 17 16 16 14 15 15 15 17 19 20 18 17 18 21 21 20 21 21 22 22 21 21 21 22 23 23 23 23 23 18
8 5 5 3 1 2 4 6 8 11 12 14 16 17 15 14 13 13 14 16 20 22 21 21 18 18 20 22 22 21 20 20 21 21 20 20 21 22 22 22 22 22 23 23
5 4 4 2 1 2 5 8 10 11 13 14 16 17 16 13 12 13 15 17 19 18 15 16 17 18 20 21 21 21 20 19 18 18 19 20 20 20 20 20 20 19 19 19
3 4 4 2 1 3 5 7 9 11 11 12 13 16 15 14 15 17 19 20 19 16 16 16 17 18 19 20 20 19 19 18 18 18 18 19 19 18 19 19 19 19 19 18
6 4 3 3 4 5 6 7 8 10 10 12 12 16 16 14 15 17 17 18 20 21 21 19 18 18 19 19 19 18 18 17 16 16 17 17 17 18 18 19 19 20 20 19
4 3 3 4 5 6 6 6 6 8 9 11 11 14 15 15 16 17 17 17 18 19 18 18 17 18 18 19 18 17 16 15 15 15 16 16 16 17 17 18 18 19 20 21
2 3 3 4 5 6 7 8 7 7 9 10 12 15 16 14 14 17 18 19 20 18 18 17 17 18 19 18 17 16 15 14 14 14 14 14 14 15 15 16 16 17 18 19
1 2 3 4 5 6 8 9 7 7 8 9 10 12 14 14 14 14 16 20 19 18 19 18 17 16 17 17 15 14 13 13 12 12 13 13 13 13 13 13 14 15 16 17
1 2 4 4 5 7 9 9 8 8 8 7 9 12 14 15 16 18 19 19 19 17 17 17 16 15 15 15 15 14 13 13 12 12 12 11 11 11 10 11 11 12 13 14
2 2 3 4 5 7 7 8 9 9 8 8 11 13 14 12 11 13 14 15 16 17 17 16 15 14 14 14 14 14 14 13 12 12 10 10 9 8 7 7 8 9 10 11
2 2 3 4 6 7 7 8 8 6 7 8 10 11 12 13 14 14 13 13 15 15 15 14 14 13 13 14 14 14 14 13 13 12 11 10 9 8 7 7 6 6 7 7
1 1 2 4 6 5 6 7 9 8 8 8 10 11 11 11 12 12 12 12 13 13 14 14 13 13 13 13 13 13 13 13 12 12 12 11 9 8 8 7 7 7 7 7
3 1 2 5 5 4 6 6 6 7 9 10 12 12 12 11 11 11 11 12 13 13 13 13 13 13 12 12 11 12 12 12 12 12 11 10 9 9 8 8 8 8 8 8
Wind_Direction
268 272 268 268 262 242 233 258 267 304 303 340 348 349 356 5 9 4 360 358 359 356 355 352 359 360 13 11 8 10 12 8 16 5 352 336 324 313 306 302 297 293 284 272
274 227 225 227 186 280 261 263 266 288 297 359 341 353 1 6 3 2 356 351 350 353 351 353 357 354 6 7 360 6 11 9 3 1 354 339 326 319 311 303 299 300 295 283
240 325 332 220 174 303 288 216 268 293 341 339 339 343 19 4 1 355 349 346 346 348 349 350 353 355 1 5 8 8 7 5 8 4 352 336 328 324 317 310 309 311 304 296
313 335 264 103 113 299 255 241 341 332 331 340 334 331 49 12 356 351 350 347 347 345 349 354 354 360 4 7 9 8 5 5 7 6 355 343 333 325 319 314 311 312 310 305
343 306 299 151 316 336 350 118 15 332 337 337 336 334 115 6 354 351 349 348 347 348 349 354 358 1 5 5 9 3 4 5 5 360 351 345 340 332 325 316 313 307 302 297
158 243 261 121 0 327 227 235 7 342 339 344 342 346 348 347 346 350 352 355 356 356 354 358 359 1 4 3 5 2 1 359 359 357 352 348 341 335 329 321 314 310 305 299
155 238 283 268 319 307 260 23 339 329 331 350 339 325 320 337 343 347 353 355 356 2 1 0 360 1 1 2 5 0 358 356 355 356 352 348 341 336 330 324 317 310 303 300
129 193 276 217 261 285 14 330 337 354 350 340 332 331 331 335 337 342 349 353 356 1 2 2 2 2 3 2 2 0 359 358 358 356 353 348 343 341 335 328 321 317 311 302
198 220 130 184 190 219 288 298 339 336 335 337 338 337 333 333 337 340 349 349 352 356 358 1 5 6 2 0 359 359 0 359 356 356 357 353 347 345 345 339 335 331 325 317
330 132 208 195 194 229 277 307 296 323 329 333 340 340 339 334 342 334 343 345 347 350 351 355 3 6 3 356 355 357 359 358 359 359 358 358 357 355 350 348 345 336 335 331
252 254 192 209 200 246 267 240 288 322 331 336 338 342 342 338 339 342 343 347 350 347 349 354 357 359 358 356 357 357 357 357 358 360 358 359 2 3 359 351 345 339 339 337
213 174 140 147 181 170 180 245 316 326 330 334 336 338 338 337 335 339 344 344 345 349 350 350 351 352 353 355 357 355 355 356 357 358 1 2 1 358 11 356 350 349 345 344
162 159 144 147 160 172 256 327 327 330 332 335 339 339 340 338 338 336 339 343 341 343 342 343 345 349 352 354 354 353 354 356 358 2 6 4 2 359 353 359 358 350 349 353
148 151 140 173 193 197 312 327 329 335 339 342 344 346 347 348 346 343 345 347 346 346 343 343 347 349 354 357 356 355 359 2 7 7 6 4 2 359 356 352 348 348 350 346
164 201 203 158 161 279 336 346 342 350 354 354 355 356 355 358 359 0 356 354 351 344 346 348 349 351 353 356 358 358 1 6 7 9 8 6 4 2 358 355 351 349 350 352
140 125 134 148 149 357 353 357 2 0 359 360 1 2 3 6 7 0 352 348 348 347 346 348 351 352 354 356 356 359 3 5 6 7 7 9 8 6 3 1 358 357 359 0
151 155 171 166 188 347 355 1 3 360 360 5 7 5 1 358 358 359 1 360 359 354 350 353 357 357 357 356 357 360 1 3 5 7 9 9 9 8 7 4 6 4 7 6
199 155 143 138 61 10 359 354 354 358 5 8 7 5 1 3 2 360 358 358 355 6 10 9 5 360 359 360 359 0 1 3 5 8 10 11 11 13 16 17 19 22 25 24
124 112 85 48 30 11 358 354 355 360 2 359 1 5 4 2 357 355 359 360 4 6 8 5 2 359 0 1 0 2 4 7 10 12 14 16 19 24 29 32 34 37 41 43
110 72 39 25 17 11 5 5 2 353 1 0 6 3 6 9 6 5 9 11 9 4 357 358 358 358 1 3 2 4 7 11 14 16 19 23 29 34 39 43 46 49 55 60
87 31 14 16 14 17 15 7 3 8 5 8 5 6 9 6 5 4 9 10 7 2 359 357 358 0 1 1 3 8 10 16 20 24 27 31 36 41 45 49 54 59 64 69
356 6 23 25 21 13 9 15 20 16 10 4 0 2 2 3 6 12 8 6 3 2 2 1 1 1 359 360 6 10 14 19 26 31 37 40 42 46 51 57 62 67 72 75
74 48 37 31 17 10 9 13 13 11 6 7 5 1 1 357 360 3 7 7 4 1 360 1 2 1 2 6 13 16 18 21 27 32 35 35 41 49 55 60 66 71 76 79
102 66 48 35 21 7 1 10 14 19 22 18 2 357 359 6 6 4 3 2 2 2 0 359 359 2 6 13 18 22 23 24 26 29 32 33 37 44 55 66 72 76 78 81
126 87 55 27 7 1 13 22 22 20 24 17 11 6 6 5 5 4 2 358 355 357 2 5 6 8 13 17 20 23 27 27 29 30 34 38 44 51 55 63 77 90 93 88
157 118 42 4 357 13 20 29 29 35 22 14 5 2 1 2 3 1 358 357 358 358 3 6 8 10 16 19 19 23 29 31 33 36 38 44 50 56 61 66 76 85 92 97
143 117 353 351 6 25 25 18 16 11 11 9 4 5 7 3 2 5 4 3 0 1 3 8 12 14 15 16 17 20 23 26 30 33 34 39 48 60 72 79 82 85 89 94